1380758434468,18.6490
1380758494468,18.6743
1380758554468,18.7387
1380758674468,18.4994
1380758734468,18.5026
1380758794468,18.5517
1380758854468,18.5530
1380758914468,18.4796
1380758974468,18.5195
1380759034468,18.5782
1380759094468,18.5979
1380759154468,18.5587
1380759214468,18.6691
1380759274468,18.6303
1380759334468,18.5215
1380759394468,18.4663
1380759454468,18.4501
1380759514468,18.5055
1380759574468,18.4522
1380759634468,18.5170
1380759694468,18.4992
1380759754468,18.4661
1380759814468,18.4919
1380759874468,18.5224
1380759934468,18.5047
1380759994468,18.4582
1380760054468,18.5695
1380760174468,18.4511
1380760234468,18.4211
1380760294468,18.4482
1380760354468,18.5349
1380760414468,18.5100
1380760474468,18.4831
1380760534468,18.4928
1380760594468,18.4351
1380760654468,18.4402
1380760714468,18.4076
1380760774468,18.4438
1380760834468,18.4819
1380760894468,18.3851
1380760954468,18.4329
1380761014468,18.4324
1380761074468,18.4007
1380761134468,18.4246
1380761194468,18.4173
1380761254468,18.4256
1380761314468,18.4200
1380761374468,18.4249
1380761434468,18.3864
1380761494468,18.4276
1380761554468,18.4181
1380761614468,18.3338
1380761674468,18.4066
1380761734468,18.4143
1380761794468,18.3540
1380761854468,18.4374
1380761914468,18.4794
1380761974468,18.4553
1380762034479,18.4643
1380762094479,18.4192
1380762154479,18.4020
1380762214479,18.3907
1380762274479,18.3701
1380762334479,18.4298
1380762394479,18.4547
1380762454479,18.4179
1380762514479,18.3765
1380762574479,18.4175
1380762634479,18.3863
1380762694479,18.4185
1380762754479,18.3909
1380762814479,18.4204
1380762874479,18.4227
1380762934479,18.5223
1380762994479,18.5978
1380763054479,18.4202
1380763114479,18.3994
1380763174479,18.3904
1380763234479,18.3309
1380763294479,18.4427
1380763354479,18.3489
1380763414479,18.2654
1380763474479,18.3769
1380763534479,18.3714
1380763594479,18.3262
1380763654479,18.3499
1380763714479,18.3158
1380763774479,18.3677
1380763834479,18.3368
1380763894479,18.3155
1380763954479,18.3379
1380764014479,18.3027
1380764074479,18.2184
1380764134479,18.3626
1380764194479,18.3458
1380764254479,18.3629
1380764314479,18.3943
1380764374479,18.3200
1380764434479,18.2519
1380764494479,18.2869
1380764554479,18.2831
1380764614479,18.3792
1380764674479,18.2838
1380764734479,18.3175
1380764794479,18.3819
1380764854479,18.3542
1380764914479,18.3380
1380764974479,18.2869
1380765034479,18.2571
1380765094479,18.3066
1380765154479,18.2269
1380765214479,18.3136
1380765274479,18.2786
1380765334479,18.3407
1380765394479,18.2933
1380765454479,18.2801
1380765514479,18.3395
1380765574479,18.3532
1380765634490,18.3487
1380765694490,18.2705
1380765754490,18.2702
1380765814490,18.2746
1380765874490,18.2373
1380765934490,18.3117
1380765994490,18.2463
1380766054490,18.2808
1380766114490,18.2021
1380766174490,18.2875
1380766234490,18.2320
1380766294490,18.2061
1380766354490,18.2210
1380766414490,18.2450
1380766474490,18.3300
1380766534490,18.2945
1380766594490,18.3154
1380766654490,18.2843
1380766714490,18.1687
1380766774490,18.2674
1380766834490,18.2729
1380766894490,18.2681
1380766954490,18.2989
1380767014490,18.3497
1380767074490,18.4252
1380767134490,18.3099
1380767194490,18.3566
1380767254490,18.3220
1380767314490,18.3392
1380767374490,18.3100
1380767434490,18.2747
1380767494490,18.3366
1380767554490,18.3775
1380767614490,18.3270
1380767674490,18.3368
1380767734490,18.4411
1380767794490,18.4098
1380767854490,18.3252
1380767914490,18.3105
1380767974490,18.3515
1380768034490,18.3420
1380768094490,18.3564
1380768154490,18.2886
1380768214490,18.2725
1380768274490,18.2423
1380768334490,18.3152
1380768394490,18.2620
1380768454490,18.3395
1380768514490,18.3939
1380768574490,18.3585
1380768634490,18.3810
1380768694490,18.3625
1380768754490,18.3585
1380768814490,18.3301
1380768874490,18.2718
1380768934490,18.2568
1380768994490,18.2846
1380769054490,18.2456
1380769114490,18.2676
1380769174490,18.2541
1380769234500,18.2750
1380769294500,18.2812
1380769354500,18.1856
1380769414500,18.2210
1380769474500,18.2093
1380769534500,18.2815
1380769594500,18.2402
1380769654500,18.2561
1380769714500,18.1952
1380769774500,18.1602
1380769834500,18.1968
1380769894500,18.1730
1380769954500,18.1667
1380770014500,18.1647
1380770074500,18.1794
1380770134500,18.2096
1380770194500,18.2514
1380770254500,18.1859
1380770314500,18.2321
1380770374500,18.1596
1380770434500,18.2028
1380770494500,18.1603
1380770554500,18.2234
1380770614500,18.2042
1380770674500,18.1838
1380770734500,18.2419
1380770794500,18.2187
1380770854500,18.1612
1380770914500,18.1879
1380770974500,18.1234
1380771034500,18.1289
1380771094500,18.2219
1380771154500,18.1592
1380771214500,18.1687
1380771274500,18.1660
1380771334500,18.1921
1380771394500,18.1721
1380771454500,18.1891
1380771514500,18.1995
1380771574500,18.1738
1380771634500,18.2338
1380771694500,18.1869
1380771754500,18.1494
1380771814500,18.1544
1380771874500,18.1688
1380771934500,18.1540
1380771994500,18.1857
1380772054500,18.1980
1380772114500,18.1753
1380772174500,18.2067
1380772234500,18.1912
1380772294500,18.1156
1380772354500,18.1591
1380772414500,18.1870
1380772474500,18.1905
1380772534500,18.2031
1380772594500,18.2118
1380772654500,18.1037
1380772714500,18.2223
1380772774500,18.1734
1380772834510,18.1187
1380772894510,18.2397
1380772954510,18.1540
1380773014510,18.1394
1380773074510,18.1693
1380773134510,18.0957
1380773194510,18.1569
1380773254510,18.1063
1380773314510,18.1532
1380773374510,18.2195
1380773434510,18.2274
1380773494510,18.2600
1380773554510,18.2527
1380773614510,18.2726
1380773674510,18.2591
1380773734510,18.2081
1380773794510,18.2422
1380773854510,18.1624
1380773914510,18.1767
1380773974510,18.2090
1380774034510,18.1946
1380774094510,18.2302
1380774154510,18.1994
1380774214510,18.1507
1380774274510,18.1887
1380774334510,18.2485
1380774394510,18.1265
1380774454510,18.1501
1380774514510,18.1242
1380774574510,18.1335
1380774634510,18.1496
1380774694510,18.1417
1380774754510,18.1417
1380774814510,18.1136
1380774874510,18.3051
1380774934510,18.2102
1380774994510,18.2003
1380775054510,18.1583
1380775114510,18.1679
1380775174510,18.2151
1380775234510,18.2602
1380775294510,18.2541
1380775354510,18.2614
1380775414510,18.2702
1380775474510,18.2436
1380775534510,18.2644
1380775594510,18.2582
1380775654510,18.2660
1380775714510,18.1424
1380775774510,18.2458
1380775834510,18.2283
1380775894510,18.2979
1380775954510,18.2506
1380776014510,18.2222
1380776074510,18.2188
1380776134510,18.1811
1380776194510,18.1657
1380776254510,18.1937
1380776314510,18.2479
1380776374510,18.1941
1380776434520,18.1792
1380776494520,18.2614
1380776554520,18.1715
1380776614520,18.1968
1380776674520,18.2429
1380776734520,18.1317
1380776794520,18.2184
1380776854520,18.1734
1380776914520,18.2126
1380776974520,18.1632
1380777034520,18.1930
1380777094520,18.2373
1380777154520,18.2059
1380777214520,18.2424
1380777274520,18.1955
1380777334520,18.2127
1380777394520,18.1319
1380777454520,18.1667
1380777514520,18.1830
1380777574520,18.1822
1380777634520,18.1607
1380777694520,18.1536
1380777754520,18.1758
1380777814520,18.1528
1380777874520,18.2278
1380777934520,18.1429
1380777994520,18.1792
1380778054520,18.1544
1380778114520,18.0893
1380778174520,18.2113
1380778234520,18.1978
1380778294520,18.1616
1380778354520,18.1735
1380778414520,18.1666
1380778474520,18.2413
1380778534520,18.1727
1380778594520,18.1230
1380778654520,18.1729
1380778714520,18.1657
1380778774520,18.1509
1380778834520,18.1386
1380778894520,18.0778
1380778954520,18.1348
1380779014520,18.1436
1380779074520,18.1351
1380779134520,18.1245
1380779194520,18.1454
1380779254520,18.1730
1380779314520,18.1422
1380779374520,18.2355
1380779434520,18.1566
1380779494520,18.1754
1380779554520,18.1984
1380779614520,18.1632
1380779674520,18.2043
1380779734520,18.1412
1380779794520,18.1454
1380779854520,18.1409
1380779914520,18.1397
1380779974520,18.1857
1380780034531,18.2068
1380780094531,18.1632
1380780154531,18.0668
1380780214531,18.1957
1380780274531,18.1240
1380780334531,18.1198
1380780394531,18.1279
1380780454531,18.0813
1380780514531,18.1676
1380780574531,18.1588
1380780634531,18.1332
1380780694531,18.1367
1380780754531,18.0916
1380780814531,18.1786
1380780874531,18.0876
1380780934531,18.1504
1380780994531,18.1025
1380781054531,18.1072
1380781114531,18.1334
1380781174531,18.1392
1380781234531,18.1039
1380781294531,18.0704
1380781354531,18.0648
1380781414531,18.1226
1380781474531,18.0747
1380781534531,18.1130
1380781594531,18.1081
1380781654531,18.0363
1380781714531,18.0918
1380781774531,18.0811
1380781834531,18.0873
1380781894531,18.0717
1380781954531,18.0511
1380782014531,18.1362
1380782074531,18.1678
1380782134531,18.0744
1380782194531,18.1282
1380782254531,18.1307
1380782314531,18.1413
1380782374531,18.1618
1380782434531,18.1122
1380782494531,18.1876
1380782554531,18.1484
1380782614531,18.1710
1380782674531,18.1823
1380782734531,18.2278
1380782794531,18.1716
1380782854531,18.1357
1380782914531,18.1056
1380782974531,18.1584
1380783034531,18.1250
1380783094531,18.1383
1380783154531,18.1840
1380783214531,18.0604
1380783274531,18.1356
1380783334531,18.1472
1380783394531,18.1384
1380783454531,18.1303
1380783514531,18.1397
1380783574531,18.1566
1380783634541,18.1771
1380783694541,18.1320
1380783754541,18.1356
1380783814541,18.1194
1380783874541,18.1124
1380783934541,18.1367
1380783994541,18.1960
1380784054541,18.1304
1380784114541,18.1171
1380784174541,18.1593
1380784234541,18.1548
1380784294541,18.1349
1380784354541,18.0802
1380784414541,18.1258
1380784474541,18.1002
1380784534541,18.1187
1380784594541,18.1476
1380784654541,18.1142
1380784714541,18.1387
1380784774541,18.1089
1380784834541,18.0524
1380784894541,18.1177
1380784954541,18.1089
1380785014541,18.1006
1380785074541,18.1181
1380785134541,18.1287
1380785194541,18.1081
1380785254541,18.1936
1380785314541,18.0917
1380785374541,18.1846
1380785434541,18.1190
1380785494541,18.2098
1380785554541,18.1302
1380785614541,18.1051
1380785674541,18.1297
1380785734541,18.1193
1380785794541,18.1660
1380785854541,18.1094
1380785914541,18.1646
1380785974541,18.0609
1380786034541,18.1097
1380786094541,18.0974
1380786154541,18.1534
1380786214541,18.1345
1380786274541,18.1523
1380786334541,18.1705
1380786394541,18.0753
1380786454541,18.1626
1380786514541,18.1230
1380786574541,18.1496
1380786634541,18.1085
1380786694541,18.0781
1380786754541,18.0842
1380786814541,18.0906
1380786874541,18.1362
1380786934541,18.1282
1380786994541,18.1214
1380787054541,18.0646
1380787114541,18.1369
1380787174541,18.1093
1380787234551,18.1388
1380787294551,18.1421
1380787354551,18.1548
1380787414551,18.1491
1380787474551,18.1051
1380787534551,18.1390
1380787594551,18.2283
1380787654551,18.1064
1380787714551,18.1650
1380787774551,18.1344
1380787834551,18.1007
1380787894551,18.1426
1380787954551,18.1450
1380788014551,18.1362
1380788074551,18.1097
1380788134551,18.1191
1380788194551,18.0850
1380788254551,18.1226
1380788314551,18.1430
1380788374551,18.1230
1380788434551,18.0838
1380788494551,18.1764
1380788554551,18.1355
1380788614551,18.1363
1380788674551,18.0930
1380788734551,18.0635
1380788794551,18.0599
1380788854551,18.0696
1380788914551,18.1081
1380788974551,18.0235
1380789034551,17.9933
1380789094551,18.0692
1380789154551,18.0113
1380789214551,18.0349
1380789274551,18.0318
1380789334551,18.0339
1380789394551,18.0212
1380789454551,18.0936
1380789514551,18.1322
1380789574551,18.0369
1380789634551,18.0393
1380789694551,18.0491
1380789754551,18.0707
1380789814551,18.0224
1380789874551,18.0525
1380789934551,18.0690
1380789994551,18.0430
1380790054551,18.0414
1380790114551,17.9832
1380790174551,18.0817
1380790234551,18.0493
1380790294551,18.0499
1380790354551,18.0353
1380790414551,17.9987
1380790474551,17.9852
1380790534551,18.0242
1380790594551,18.0244
1380790654551,18.0117
1380790714551,18.0090
1380790774551,18.0430
1380790834562,18.0928
1380790894562,18.1401
1380790954562,18.1416
1380791014562,18.1652
1380791074562,18.0750
1380791134562,18.1529
1380791194562,18.0564
1380791254562,18.1779
1380791314562,18.1019
1380791374562,18.0734
1380791434562,18.0822
1380791494562,17.9462
1380792034562,18.0318
1380792094562,18.0071
1380792154562,18.0252
1380792214562,18.0152
1380792274562,18.0321
1380792334562,18.0304
1380792394562,18.0148
1380792454562,18.0121
1380792514562,18.0411
1380792574562,18.0916
1380792634562,18.0563
1380792694562,18.0410
1380792754562,18.0126
1380792814562,18.0567
1380792874562,18.0719
1380792934562,18.0465
1380792994562,18.0004
1380793054562,17.9976
1380793114562,17.9895
1380793174562,17.9964
1380793234562,17.9963
1380793294562,17.9829
1380793354562,17.9987
1380793414562,18.0711
1380793474562,18.0851
1380793534562,17.9914
1380793594562,18.0885
1380793654562,18.0718
1380793714562,18.0683
1380793774562,18.0798
1380793834562,18.0528
1380793894562,18.0235
1380793954562,18.0466
1380794014562,18.0298
1380794074562,18.1375
1380794134562,18.1098
1380794194562,18.0693
1380794254562,18.0570
1380794314562,18.1237
1380794374562,18.1074
1380794434572,18.1574
1380794494572,18.0670
1380794554572,18.1315
1380794614572,18.0745
1380794674572,18.0838
1380794734572,18.0828
1380794794572,18.0922
1380794854572,18.1021
1380794914572,18.0862
1380794974572,18.1188
1380795034572,18.0967
1380795094572,18.0622
1380795154572,18.0947
1380795214572,18.0645
1380795274572,18.0120
1380795334572,18.0844
1380795394572,18.0489
1380795454572,18.0648
1380795514572,18.0992
1380795574572,18.0185
1380795634572,18.0488
1380795694572,18.0351
1380795754572,17.9869
1380795814572,18.0611
1380795874572,18.1112
1380795934572,18.0347
1380795994572,18.1113
1380796054572,18.0560
1380796114572,18.1134
1380796174572,18.0916
1380796234572,18.0504
1380796294572,18.0878
1380796354572,18.0592
1380796414572,18.1072
1380796474572,17.9917
1380796534572,18.0957
1380796594572,18.0126
1380796654572,18.0778
1380796714572,18.1045
1380796774572,18.0600
1380796834572,18.1153
1380796894572,18.0896
1380796954572,18.0733
1380797014572,18.0662
1380797074572,18.0896
1380797134572,18.0793
1380797194572,18.0858
1380797254572,18.1822
1380797314572,18.1281
1380797374572,18.1198
1380797434572,18.0569
1380797494572,18.0040
1380797554572,18.0702
1380797614572,18.0417
1380797674572,18.0622
1380797734572,18.0681
1380797794572,18.0821
1380797854572,18.0538
1380797914572,18.1205
1380797974572,18.0889
1380798034583,18.0546
1380798094583,18.0558
1380798154583,18.0666
1380798214583,18.0562
1380798274583,18.0473
1380798334583,18.0263
1380798394583,17.9945
1380798454583,18.0095
1380798514583,18.0293
1380798574583,18.0025
1380798634583,18.0234
1380798694583,18.0272
1380798754583,18.0589
1380798814583,18.0566
1380798874583,18.0604
1380798934583,18.0807
1380798994583,18.0361
1380799054583,18.0378
1380799114583,18.0821
1380799174583,18.0634
1380799234583,18.0815
1380799294583,18.0921
1380799354583,18.0025
1380799414583,18.0695
1380799474583,18.0820
1380799534583,18.0587
1380799594583,18.0473
1380799654583,18.0859
1380799714583,18.0698
1380799774583,18.0361
1380799834583,18.0880
1380799894583,18.0397
1380799954583,18.1238
1380800014583,18.0609
1380800074583,18.0722
1380800134583,18.0850
1380800194583,18.0352
1380800254583,18.0138
1380800314583,18.0658
1380800374583,18.0958
1380800434583,18.0813
1380800494583,17.9271
1380800554583,18.0695
1380800614583,18.0531
1380800674583,18.0397
1380800734583,18.0351
1380800794583,18.0727
1380800854583,18.0562
1380800914583,17.9704
1380800974583,18.0697
1380801034583,18.0128
1380801094583,18.1097
1380801154583,18.0618
1380801214583,18.0672
1380801274583,18.1285
1380801334583,18.1197
1380801394583,18.1004
1380801454583,18.1384
1380801514583,18.0860
1380801574583,18.1039
1380801634594,18.0040
1380801694594,18.0846
1380801754594,18.0796
1380801814594,18.1318
1380801874594,18.1171
1380801934594,18.1022
1380801994594,18.1427
1380802054594,18.0541
1380802114594,18.1453
1380802174594,18.0789
1380802234594,17.9905
1380802294594,18.0180
1380802354594,18.0603
1380802414594,18.0786
1380802474594,18.0980
1380802534594,18.0441
1380802594594,18.1416
1380802654594,18.0573
1380802714594,18.1315
1380802774594,18.1092
1380802834594,18.0691
1380802894594,18.1379
1380802954594,18.0736
1380803014594,18.0985
1380803074594,18.0705
1380803134594,18.1275
1380803194594,18.0777
1380803254594,18.1664
1380803314594,18.1523
1380803374594,18.1234
1380803434594,18.0567
1380803494594,18.1658
1380803554594,18.1291
1380803614594,18.1288
1380803674594,18.1230
1380803734594,18.0994
1380803794594,18.1064
1380803854594,18.0864
1380803914594,18.1293
1380803974594,18.1681
1380804034594,18.0352
1380804094594,18.1554
1380804154594,18.1228
1380804214594,18.1836
1380804274594,18.1156
1380804334594,18.1231
1380804394594,18.1674
1380804454594,18.1667
1380804514594,18.1056
1380804574594,18.1718
1380804634594,18.1851
1380804694594,18.2211
1380804754594,18.2363
1380804814594,18.1476
1380804874594,18.1367
1380804934594,18.2051
1380804994594,18.1585
1380805054594,18.1418
1380805114594,18.1360
1380805174594,18.1463
1380805234605,18.1858
1380805294605,18.1767
1380805354605,18.1244
1380805414605,18.1488
1380805474605,18.2721
1380805534605,18.2062
1380805594605,18.1169
1380805654605,18.1909
1380805714605,18.1405
1380805774605,18.0789
1380805834605,18.1700
1380805894605,18.1175
1380805954605,18.1574
1380806014605,18.1156
1380806074605,18.1543
1380806134605,18.1590
1380806194605,18.1328
1380806254605,18.1242
1380806314605,18.1529
1380806374605,18.1141
1380806434605,18.0724
1380806494605,18.1626
1380806554605,18.1975
1380806614605,18.1923
1380806674605,18.1918
1380806734605,18.1403
1380806794605,18.1840
1380806854605,18.1542
1380806914605,18.1658
1380806974605,18.1099
1380807034605,18.1442
1380807094605,18.1405
1380807154605,18.1646
1380807214605,18.1630
1380807274605,18.2122
1380807334605,18.1625
1380807394605,18.0878
1380807454605,18.1094
1380807514605,18.1773
1380807574605,18.1709
1380807634605,18.1570
1380807694605,18.1898
1380807754605,18.1283
1380807814605,18.1218
1380807874605,18.1255
1380807934605,18.1835
1380807994605,18.1576
1380808054605,18.1488
1380808114605,18.2078
1380808174605,18.0907
1380808234605,18.1243
1380808294605,18.1318
1380808354605,18.1709
1380808414605,18.1429
1380808474605,18.2230
1380808534605,18.1549
1380808594605,18.2065
1380808654605,18.1673
1380808714605,18.1458
1380808774605,18.1991
1380808834616,18.0961
1380808894616,18.1507
1380808954616,18.1692
1380809014616,18.1017
1380809074616,18.1534
1380809134616,18.1766
1380809194616,18.2123
1380809254616,18.1890
1380809314616,18.2025
1380809374616,18.1885
1380809434616,18.2354
1380809494616,18.2878
1380809554616,18.1980
1380809614616,18.2148
1380809674616,18.2880
1380809734616,18.2453
1380809794616,18.2577
1380809854616,18.1811
1380809914616,18.1474
1380809974616,18.1422
1380810034616,18.1964
1380810094616,18.2104
1380810154616,18.2058
1380810214616,18.1128
1380810274616,18.1514
1380810334616,18.0719
1380810394616,18.1501
1380810454616,18.1584
1380810514616,18.0923
1380810574616,18.0945
1380810634616,18.1943
1380810694616,18.0822
1380810754616,18.1380
1380810814616,18.1936
1380810874616,18.0841
1380810934616,18.1137
1380810994616,18.1018
1380811054616,18.0715
1380811114616,18.1514
1380811174616,18.1415
1380811234616,18.1042
1380811294616,18.0635
1380811354616,18.0896
1380811414616,18.0902
1380811474616,18.1338
1380811534616,18.1116
1380811594616,18.1304
1380811654616,18.1119
1380811714616,18.1700
1380811774616,18.0536
1380811834616,18.0912
1380811894616,18.1381
1380811954616,18.0918
1380812014616,18.0844
1380812074616,18.1525
1380812134616,18.1492
1380812194616,18.0825
1380812254616,18.1498
1380812314616,18.1660
1380812374616,18.1616
1380812434628,18.0977
1380812494628,18.1439
1380812554628,18.0931
1380812614628,18.1406
1380812674628,18.1694
1380812734628,18.1094
1380812794628,18.1481
1380812854628,18.1519
1380812914628,18.0988
1380812974628,18.1271
1380813034628,18.1592
1380813094628,18.2017
1380813154628,18.2174
1380813214628,18.2153
1380813274628,18.1388
1380813334628,18.1788
1380813394628,18.1885
1380813454628,18.1985
1380813514628,18.2139
1380813574628,18.1308
1380813634628,18.1442
1380813694628,18.1168
1380813754628,18.1454
1380813814628,18.1713
1380813874628,18.0826
1380813934628,18.0890
1380813994628,18.1872
1380814054628,18.1305
1380814114628,18.0854
1380814174628,18.1124
1380814234628,18.1203
1380814294628,18.1176
1380814354628,18.1450
1380814414628,18.1255
1380814474628,18.1405
1380814534628,18.1073
1380814594628,18.1418
1380814654628,18.1314
1380814714628,18.1615
1380814774628,18.1814
1380814834628,18.1765
1380814894628,18.1723
1380814954628,18.1663
1380815014628,18.1904
1380815074628,18.1651
1380815134628,18.1834
1380815194628,18.2866
1380815254628,18.1601
1380815314628,18.2199
1380815374628,18.1696
1380815434628,18.2258
1380815494628,18.1779
1380815554628,18.2202
1380815614628,18.2117
1380815674628,18.1657
1380815734628,18.2128
1380815794628,18.1485
1380815854628,18.1693
1380815914628,18.2120
1380815974628,18.1937
1380816034640,18.1557
1380816094640,18.2106
1380816154640,18.1917
1380816214640,18.1745
1380816274640,18.1515
1380816334640,18.1550
1380816394640,18.1968
1380816454640,18.0993
1380816514640,18.1997
1380816574640,18.2032
1380816634640,18.1901
1380816694640,18.1575
1380816754640,18.2462
1380816814640,18.1663
1380816874640,18.1727
1380816934640,18.1325
1380816994640,18.1372
1380817054640,18.1844
1380817114640,18.1343
1380817174640,18.0989
1380817234640,18.1653
1380817294640,18.2122
1380817354640,18.1854
1380817414640,18.1766
1380817474640,18.1880
1380817534640,18.1852
1380817594640,18.2027
1380817654640,18.1877
1380817714640,18.1851
1380817774640,18.1905
1380817834640,18.1238
1380817894640,18.1972
1380817954640,18.2284
1380818014640,18.1823
1380818074640,18.2271
1380818134640,18.2323
1380818194640,18.2002
1380818254640,18.1625
1380818314640,18.1661
1380818374640,18.1577
1380818434640,18.2168
1380818494640,18.2186
1380818554640,18.1987
1380818614640,18.1774
1380818674640,18.1959
1380818734640,18.2023
1380818794640,18.1852
1380818854640,18.1335
1380818914640,18.1902
1380818974640,18.1900
1380819034640,18.1527
1380819094640,18.2179
1380819154640,18.2306
1380819214640,18.1151
1380819274640,18.1656
1380819334640,18.1048
1380819394640,18.2453
1380819454640,18.1885
1380819514640,18.2094
1380819574640,18.2248
1380819634651,18.1669
1380819694651,18.1660
1380819754651,18.1206
1380819814651,18.1843
1380819874651,18.1710
1380819934651,18.1689
1380819994651,18.1838
1380820054651,18.2658
1380820114651,18.2166
1380820174651,18.1742
1380820234651,18.2013
1380820294651,18.2151
1380820354651,18.1845
1380820414651,18.1053
1380820474651,18.2355
1380820534651,18.2086
1380820594651,18.1983
1380820654651,18.1863
1380820714651,18.2548
1380820774651,18.1976
1380820834651,18.2351
1380820894651,18.2821
1380820954651,18.2120
1380821014651,18.1955
1380821074651,18.1569
1380821134651,18.2183
1380821194651,18.2446
1380821254651,18.2347
1380821314651,18.2160
1380821374651,18.0977
1380821434651,18.1682
1380821494651,18.1982
1380821554651,18.1629
1380821614651,18.1969
1380821674651,18.1857
1380821734651,18.1001
1380821794651,18.1911
1380821854651,18.1906
1380821914651,18.2418
1380821974651,18.1864
1380822034651,18.1579
1380822094651,18.3620
1380822154651,18.2108
1380822214651,18.2355
1380822274651,18.2407
1380822334651,18.2081
1380822394651,18.1818
1380822454651,18.2416
1380822514651,18.1999
1380822574651,18.2295
1380822634651,18.1602
1380822694651,18.1733
1380822754651,18.1894
1380822814651,18.2921
1380822874651,18.2390
1380822934651,18.2118
1380822994651,18.1575
1380823054651,18.1994
1380823114651,18.1735
1380823174651,18.2462
1380823234663,18.1475
1380823294663,18.1736
1380823354663,18.2434
1380823414663,18.1482
1380823474663,18.1119
1380823534663,18.1725
1380823594663,18.1473
1380823654663,18.1861
1380823714663,18.1737
1380823774663,18.1485
1380823834663,18.1220
1380823894663,18.1703
1380823954663,18.1996
1380824014663,18.1891
1380824074663,18.1593
1380824134663,18.2641
1380824194663,18.1572
1380824254663,18.1834
1380824314663,18.2418
1380824374663,18.1695